Miscellaneous Local Product
Issued by NWS Hastings, NE

Home | Current Version | Previous Version | Text Only | Print | Product List | Glossary On
Versions: 1 2 3 4 5 6 7 8 9 10 11 12 13 14 15 16 17 18 19 20 21 22 23 24 25 26 27 28 29 30 31 32 33 34 35 36 37 38 39 40 41 42 43 44 45 46 47 48 49 50
000
AXUS43 KGID 281002
MISGRI

GID CWA HOURLY WEATHER ROUNDUP
NATIONAL WEATHER SERVICE HASTINGS NE
500 AM CDT THU MAY 28 2015

NOTE: "FAIR" INDICATES FEW OR NO CLOUDS BELOW 12,000 FEET WITH NO
SIGNIFICANT WEATHER AND/OR OBSTRUCTIONS TO VISIBILITY.

...SOUTH CENTRAL NEBRASKA...

CITY           SKY/WX    TMP DP  RH WIND       PRES   REMARKS
GRAND ISLAND   MOCLDY    62  57  83 S8        30.03R
HASTINGS       CLOUDY    61  58  90 S7        30.02R
KEARNEY        CLOUDY    59  55  88 S7        30.02S
ORD            PTCLDY    59  56  89 SE6       30.00R
YORK           CLOUDY    63  55  77 SE9       30.03R
AURORA         CLOUDY    62  57  84 SE8       30.03R
LEXINGTON      MOCLDY    58  57  96 S5        30.02F FOG
HOLDREGE       CLOUDY    58  56  92 S3        30.02S
HEBRON         CLOUDY    63  57  81 CALM      30.03S

...NEBRASKA PANHANDLE...

CITY           SKY/WX    TMP DP  RH WIND       PRES   REMARKS
CHADRON        MOCLDY    57  50  77 SW8       29.94S
ALLIANCE       MOCLDY    53  50  89 W7        29.97F
SCOTTSBLUFF    MOCLDY    53  50  89 CALM      30.00F
SIDNEY         PTCLDY    49  49 100 S6        30.02F

...WESTERN AND NORTH CENTRAL NEBRASKA...

CITY           SKY/WX    TMP DP  RH WIND       PRES   REMARKS
VALENTINE      MOCLDY    55  53  93 SE6       29.96F
AINSWORTH      PTCLDY    56  56  98 S7        29.99S
ONEILL         PTCLDY    61  58  89 S6        30.00S
BROKEN BOW     MOCLDY    56  55  97 CALM      30.02R FOG
IMPERIAL       MOCLDY    53  51  93 CALM      30.03R
NORTH PLATTE   CLEAR     53  52  96 SW3       30.04R
MCCOOK         CLOUDY    54  52  93 E7        30.02R

...EASTERN NEBRASKA...

CITY           SKY/WX    TMP DP  RH WIND       PRES   REMARKS
NORFOLK        PTCLDY    64  52  64 S12       30.02S
SO SIOUX CITY  MOCLDY    59  52  77 E7        30.03F
TEKAMAH        PTCLDY    59  53  80 S3        30.04S
COLUMBUS       MOCLDY    64  50  59 S12       30.04R
ALBION         MOCLDY    60  53  76 SE5       30.02S
OMAHA EPPLEY   CLOUDY    63  54  72 SE5       30.04S
OFFUTT AFB     MOCLDY    57  54  89 E8        30.04S
MILLARD        MOCLDY    59  55  86 CALM      30.04S
LINCOLN        CLOUDY    65  55  70 S5        30.04R
NEBRASKA CITY  CLOUDY    64  51  63 SE6       30.04F
BEATRICE       CLOUDY    65  57  74 S9        30.04R
FALLS CITY     NOT AVBL

...NORTHERN KANSAS...

CITY           SKY/WX    TMP DP  RH WIND       PRES   REMARKS
GOODLAND       CLOUDY    55  54  96 S12       30.02S
HILL CITY      CLOUDY    59  54  83 CALM      30.02R
NORTON         SUNNY     55  52  88 CALM      30.02R
PHILLIPSBURG   CLEAR     61  61 100 NE5       30.01S
HAYS           CLOUDY    57  50  77 SE6       30.02R
RUSSELL        CLOUDY    58  56  93 SE6       30.01R
CONCORDIA      LGT RAIN  62  61  96 E5        30.02R
SALINA         LGT RAIN  64  61  90 SE7       30.03R
TOPEKA         CLOUDY    66  58  75 E6        30.04S



USA.gov is the U.S. government's official web portal to all federal, state and local government web resources and services.